Location: Bottenau
(48.5138°N, 8.0462°E)
Time: 04:58:13
(UTC+00:00)

Resurs 01 Rocket - Pass Details

Date: 18 April 2021
Orbit: 634 x 644 km, 97.9° (Epoch: 09 May)

Event Time Altitude Azimuth Distance (km) Brightness Sun altitude
Exits shadow 19:12:45 10° 133° (SE) 2,075 3.6 -8.3°
Reaches altitude 10° 19:12:51 10° 132° (SE) 2,039 3.6 -8.3°
Maximum altitude 19:16:53 35° 67° (ENE) 1,042 2.4 -8.9°
Drops below altitude 10° 19:20:57 10° 2° (N) 2,054 4.6 -9.5°
Sets 19:23:18 0° 354° (N) 2,968 5.6 -9.9°
